Torna al catalogo

METEOR 2-17 DEB

AttivoPO
NORAD 29066·DEBRIS·🇷🇺 Russia

Lanciato Jan 30, 1988 da Plesetsk Cosmodrome

Loading…

Prossimi Passaggi (prossime 24 ore)

TLE

In scadenzaSource: Space-Track

Epoca: Sep 11, 2026, 03:26 UTC

1 29066U 88005L   26254.14346844  .00001303  00000-0  78184-3 0  9995
2 29066  82.5473 175.0412 0030393 287.4770  72.3081 14.06091437632307

Traccia METEOR 2-17 DEB in tempo reale con AllMySat

Download on the App Store